EW8660 Weather Reports


Display with metric or nautical units.
time (UTC)temp
F
wind
direction
speed
MPH
gust
MPH
rain 1hr
in
rain 24hr
in
rain mn
in
humidity
%
barometer
mb
20260903062632 56 248 2.0 7.0 0.02 0.48 0.48 91 1009.0
20260903061630 56 192 1.0 5.0 0.03 0.48 0.48 91 1009.0
20260903061132 56 140 0.0 5.0 0.03 0.48 0.48 91 1009.1
20260903060630 56 186 1.0 3.0 0.04 0.48 0.48 91 1009.1
20260903060136 56 119 1.0 4.0 0.05 0.48 0.48 91 1009.0
20260903060130 56 148 1.0 4.0 0.05 0.48 0.48 91 1009.1
20260903055246 57 153 0.0 5.0 0.05 0.48 0.48 91 1009.2
20260903055132 56 146 1.0 3.0 0.05 0.48 0.48 91 1009.1
20260903055126 56 169 0.0 5.0 0.05 0.48 0.48 91 1009.1
20260903053629 57 220 0.0 2.0 0.04 0.47 0.47 91 1009.1
20260903053624 57 174 1.0 4.0 0.03 0.46 0.46 91 1009.2
20260903053230 57 146 0.0 3.0 0.04 0.47 0.47 91 1009.2
20260903052122 57 184 1.0 5.0 0.03 0.46 0.46 91 1009.2
20260903051624 57 247 1.0 5.0 0.02 0.45 0.45 91 1009.2
20260903051124 57 249 0.0 2.0 0.02 0.45 0.45 91 1009.2
20260903050623 57 142 0.0 5.0 0.01 0.44 0.44 91 1009.1
20260903050128 57 172 0.0 4.0 0.00 0.43 0.43 91 1009.0
20260903050123 57 212 0.0 5.0 0.00 0.43 0.43 91 1009.1
20260903045124 57 140 0.0 3.0 0.00 0.43 0.43 91 1009.1
20260903044623 57 155 1.0 6.0 0.00 0.43 0.43 91 1008.9
20260903044123 56 159 1.0 6.0 0.00 0.43 0.43 91 1008.9
20260903043624 56 130 2.0 7.0 0.00 0.43 0.43 91 1008.8
20260903043123 56 174 2.0 7.0 0.00 0.43 0.43 91 1008.7
20260903042624 56 155 1.0 4.0 0.00 0.43 0.43 91 1008.7
20260903042123 56 153 0.0 5.0 0.00 0.43 0.43 90 1008.7
20260903041623 56 132 0.0 5.0 0.00 0.43 0.43 90 1008.7
20260903041129 56 243 0.0 6.0 0.00 0.43 0.43 89 1008.5
20260903041124 56 125 0.0 6.0 0.00 0.43 0.43 90 1008.6
20260903040741 57 257 0.0 3.0 0.00 0.43 0.43 88 1008.5
20260903035624 57 145 1.0 3.0 0.00 0.43 0.43 88 1008.5
20260903035122 57 219 1.0 4.0 0.00 0.43 0.43 88 1008.3
20260903034624 57 146 2.0 8.0 0.00 0.43 0.43 88 1008.1
20260903034123 57 109 1.0 8.0 0.00 0.43 0.43 88 1008.1
20260903033623 57 150 1.0 3.0 0.00 0.43 0.43 88 1008.0
20260903033122 57 155 1.0 3.0 0.00 0.43 0.43 88 1008.0
20260903032623 57 151 0.0 2.0 0.00 0.43 0.43 88 1008.0
20260903032124 58 136 0.0 4.0 0.00 0.43 0.43 88 1007.9
20260903031624 58 214 0.0 4.0 0.00 0.43 0.43 88 1007.9
20260903031125 58 138 0.0 2.0 0.00 0.43 0.43 88 1007.9
20260903030623 58 215 0.0 2.0 0.00 0.43 0.43 88 1007.8
20260903030123 58 252 0.0 0.0 0.00 0.43 0.43 88 1007.7
20260903025624 58 252 0.0 5.0 0.00 0.43 0.43 88 1007.6
20260903025127 59 29 0.0 2.0 0.00 0.43 0.43 87 1007.6
20260903025122 58 252 0.0 5.0 0.00 0.43 0.43 87 1007.6
20260903024123 59 169 0.0 5.0 0.00 0.43 0.43 87 1007.6
20260903023622 59 240 0.0 5.0 0.00 0.43 0.43 87 1007.6
20260903023123 60 227 0.0 1.0 0.00 0.43 0.43 87 1007.7
20260903022621 60 246 0.0 2.0 0.00 0.43 0.43 87 1007.6
20260903022120 60 204 0.0 2.0 0.00 0.43 0.43 87 1007.6
20260903021621 60 220 1.0 4.0 0.00 0.43 0.43 86 1007.5
20260903021120 60 226 1.0 6.0 0.00 0.43 0.43 85 1007.4
20260903020620 61 224 1.0 6.0 0.00 0.43 0.43 84 1007.3
20260903020118 61 226 1.0 3.0 0.00 0.43 0.43 86 1007.4
20260903015624 60 227 1.0 3.0 0.00 0.43 0.43 85 1007.4
20260903015618 60 75 1.0 3.0 0.00 0.43 0.43 86 1007.4
20260903015238 60 262 1.0 4.0 0.01 0.43 0.43 86 1007.3
20260903014118 61 281 0.0 4.0 0.01 0.43 0.43 85 1007.4
20260903013624 60 204 1.0 5.0 0.02 0.43 0.43 88 1007.3
20260903013619 60 110 0.0 3.0 0.02 0.43 0.43 87 1007.3
20260903012618 59 226 1.0 5.0 0.02 0.43 0.43 89 1007.2
20260903012119 59 226 1.0 3.0 0.02 0.43 0.43 89 1007.2
20260903011624 59 11 1.0 4.0 0.02 0.43 0.43 89 1007.1
20260903011619 59 225 0.0 3.0 0.02 0.43 0.43 89 1007.1
20260903010619 60 198 1.0 5.0 0.02 0.43 0.43 90 1007.1
20260903010237 60 264 1.0 4.0 0.02 0.43 0.43 89 1006.8
20260903010121 60 221 1.0 7.0 0.02 0.43 0.43 89 1006.8
20260903010116 60 238 2.0 7.0 0.02 0.43 0.43 89 1007.0
20260903004617 60 248 1.0 5.0 0.01 0.42 0.42 89 1006.8
20260903004117 60 214 1.0 5.0 0.01 0.42 0.42 89 1006.8
20260903003623 60 229 1.0 7.0 0.00 0.41 0.41 89 1006.7
20260903003616 60 270 1.0 4.0 0.00 0.41 0.41 89 1006.8
20260903003116 60 205 1.0 7.0 0.00 0.41 0.41 89 1006.7
20260903002116 60 238 1.0 5.0 0.00 0.41 0.41 90 1006.6
20260903001615 60 237 1.0 6.0 0.00 0.41 0.41 90 1006.5
20260903001115 60 255 1.0 6.0 0.00 0.41 0.41 89 1006.4
20260903000620 60 231 1.0 7.0 0.01 0.41 0.41 90 1006.4
20260903000615 60 229 1.0 7.0 0.00 0.41 0.41 90 1006.5
20260902235614 60 169 1.0 7.0 0.02 0.41 0.41 90 1006.4
20260902235116 60 266 1.0 6.0 0.04 0.41 0.41 91 1006.4
20260902234615 60 149 1.0 6.0 0.08 0.41 0.41 91 1006.4
20260902234115 60 237 1.0 4.0 0.09 0.41 0.41 91 1006.3
20260902233615 60 220 1.0 7.0 0.10 0.41 0.41 91 1006.3
20260902233121 59 217 1.0 4.0 0.11 0.41 0.41 91 1006.2
20260902233115 59 200 1.0 7.0 0.10 0.41 0.41 90 1006.3
20260902232113 59 278 1.0 3.0 0.12 0.41 0.41 91 1006.3
20260902231617 59 212 2.0 8.0 0.13 0.41 0.41 91 1006.1
20260902231612 59 271 1.0 7.0 0.12 0.41 0.41 91 1006.1
20260902230613 59 310 2.0 8.0 0.13 0.41 0.41 91 1006.1
20260902230113 59 224 1.0 8.0 0.13 0.40 0.41 91 1006.1
20260902225612 59 287 1.0 3.0 0.12 0.39 0.39 91 1006.0
20260902225112 60 223 1.0 8.0 0.10 0.37 0.37 91 1006.0
20260902224612 60 228 2.0 9.0 0.07 0.33 0.33 91 1006.0
20260902224112 60 258 2.0 9.0 0.06 0.32 0.32 90 1005.9
20260902223613 60 211 1.0 7.0 0.05 0.31 0.31 90 1005.8
20260902223110 60 260 1.0 5.0 0.05 0.31 0.31 90 1005.8
20260902222612 60 200 1.0 8.0 0.04 0.30 0.30 90 1005.7
20260902222117 60 210 1.0 9.0 0.04 0.29 0.29 89 1005.7
20260902222111 60 207 2.0 9.0 0.04 0.29 0.30 90 1005.7
20260902221111 60 263 1.0 8.0 0.04 0.28 0.28 89 1005.7
20260902220608 60 267 2.0 7.0 0.04 0.28 0.28 89 1005.6
20260902220109 60 238 2.0 6.0 0.03 0.27 0.27 88 1005.6
20260902215609 60 158 2.0 8.0 0.03 0.27 0.27 88 1005.6
20260902215113 60 137 2.0 11.0 0.03 0.26 0.26 87 1005.5
20260902215107 60 214 2.0 8.0 0.04 0.27 0.27 88 1005.4
20260902214108 60 167 2.0 11.0 0.03 0.26 0.26 87 1005.4
20260902213608 60 155 2.0 9.0 0.03 0.26 0.26 87 1005.3
20260902213115 60 205 2.0 7.0 0.03 0.26 0.26 86 1005.3
20260902213109 60 146 3.0 9.0 0.03 0.26 0.26 87 1005.3
20260902212106 60 221 2.0 9.0 0.02 0.25 0.26 86 1005.2
20260902211605 60 210 3.0 9.0 0.02 0.25 0.25 86 1005.3
20260902211106 60 42 3.0 10.0 0.01 0.24 0.24 86 1005.3
20260902210605 60 136 3.0 10.0 0.01 0.24 0.24 85 1005.2
20260902210114 61 223 3.0 7.0 0.00 0.23 0.23 84 1005.1
20260902210108 60 41 2.0 10.0 0.01 0.24 0.24 85 1005.3
20260902205608 61 148 2.0 8.0 0.01 0.24 0.24 85 1005.3
20260902205227 61 72 3.0 12.0 0.00 0.23 0.23 84 1005.0
20260902204106 61 169 2.0 12.0 0.00 0.23 0.23 84 1005.1
20260902203606 61 229 2.0 8.0 0.00 0.23 0.23 86 1005.1
20260902203105 60 157 2.0 8.0 0.01 0.23 0.23 86 1005.1
20260902202605 60 278 3.0 9.0 0.02 0.23 0.23 85 1004.9
20260902202107 60 218 3.0 9.0 0.02 0.23 0.23 85 1004.7
20260902201609 60 221 3.0 10.0 0.03 0.23 0.23 87 1004.6
20260902201604 60 130 3.0 9.0 0.02 0.23 0.23 86 1004.7
20260902200603 60 153 3.0 10.0 0.03 0.23 0.23 87 1004.6
20260902200103 60 328 3.0 10.0 0.03 0.23 0.23 88 1004.6
20260902195603 60 124 2.0 10.0 0.04 0.23 0.23 89 1004.6
20260902195105 59 143 2.0 10.0 0.05 0.23 0.23 89 1004.7
20260902194603 59 202 2.0 10.0 0.06 0.23 0.23 89 1004.6
20260902194103 59 118 3.0 11.0 0.07 0.23 0.23 89 1004.6
20260902193604 59 122 3.0 11.0 0.07 0.23 0.23 89 1004.6
20260902193103 59 86 3.0 9.0 0.07 0.22 0.22 88 1004.7
20260902192605 59 150 2.0 8.0 0.07 0.21 0.21 89 1004.7
20260902192105 59 153 2.0 13.0 0.09 0.21 0.21 90 1004.8
20260902191605 58 276 3.0 13.0 0.11 0.21 0.21 89 1004.8
20260902191103 58 156 2.0 10.0 0.11 0.20 0.20 90 1004.8
20260902190606 58 147 3.0 7.0 0.12 0.20 0.20 90 1004.9
20260902190104 58 146 3.0 9.0 0.13 0.20 0.20 90 1004.9
20260902185604 58 142 4.0 11.0 0.12 0.19 0.19 89 1005.0
20260902185104 58 129 3.0 11.0 0.12 0.18 0.18 89 1005.1
20260902184604 58 154 2.0 7.0 0.11 0.17 0.17 89 1005.2
20260902184104 58 126 2.0 9.0 0.10 0.16 0.16 89 1005.2
20260902183612 59 174 0.0 6.0 0.09 0.15 0.15 88 1005.3
20260902183606 58 186 1.0 9.0 0.10 0.16 0.16 88 1005.3
20260902182725 59 158 1.0 6.0 0.06 0.10 0.10 87 1005.3
20260902182609 59 236 1.0 4.0 0.07 0.12 0.13 88 1005.4
20260902182604 59 158 0.0 4.0 0.09 0.14 0.14 88 1005.5
20260902181105 59 230 0.0 6.0 0.05 0.09 0.09 86 1005.3
20260902180604 59 184 1.0 4.0 0.05 0.08 0.08 86 1005.4
20260902180110 59 199 0.0 3.0 0.04 0.06 0.06 87 1005.5
20260902180104 59 209 1.0 7.0 0.04 0.07 0.07 86 1005.5
20260902175604 59 177 1.0 7.0 0.04 0.06 0.06 85 1005.4
20260902174603 59 219 0.0 3.0 0.05 0.06 0.06 87 1005.6
20260902174103 59 114 1.0 4.0 0.05 0.06 0.06 87 1005.6
20260902173605 59 163 1.0 4.0 0.06 0.06 0.06 86 1005.6
20260902173104 59 152 0.0 5.0 0.06 0.06 0.06 86 1005.6
20260902172605 59 114 0.0 5.0 0.05 0.05 0.05 86 1005.8
20260902172104 59 154 1.0 4.0 0.05 0.05 0.05 85 1005.9
20260902171604 59 197 1.0 5.0 0.04 0.04 0.04 85 1006.0
20260902171110 59 245 1.0 4.0 0.03 0.03 0.03 83 1005.9
20260902171103 59 241 1.0 5.0 0.04 0.04 0.04 84 1005.9
20260902170103 60 148 1.0 10.0 0.03 0.03 0.03 83 1005.9
20260902165604 60 253 2.0 10.0 0.02 0.02 0.02 81 1005.8
20260902165103 60 215 2.0 6.0 0.02 0.02 0.02 80 1005.8
20260902164604 60 277 1.0 5.0 0.01 0.01 0.01 80 1005.7
20260902164103 61 211 2.0 10.0 0.01 0.01 0.01 79 1005.7
20260902163609 62 226 1.0 5.0 0.00 0.00 0.00 77 1005.5
20260902163604 61 221 2.0 10.0 0.00 0.00 0.00 78 1005.6
20260902162609 62 260 0.0 6.0 0.00 0.00 0.00 77 1005.4
20260902162603 62 259 0.0 6.0 0.00 0.00 0.00 78 1005.4
20260902161607 62 252 0.0 0.0 0.00 0.00 0.00 78 1005.2
20260902161601 62 239 0.0 1.0 0.00 0.00 0.00 78 1005.3
20260902160723 62 252 0.0 1.0 0.00 0.00 0.00 77 1005.4
20260902160602 62 252 0.0 1.0 0.00 0.00 0.00 78 1005.2
20260902160107 62 252 0.0 1.0 0.00 0.00 0.00 77 1005.3
20260902154600 62 252 0.0 1.0 0.00 0.00 0.00 76 1005.5
20260902154100 62 252 0.0 1.0 0.00 0.00 0.00 76 1005.5
20260902153600 62 222 0.0 1.0 0.00 0.00 0.00 76 1005.6
20260902153057 62 229 0.0 1.0 0.00 0.00 0.00 76 1005.7
20260902152557 62 229 0.0 3.0 0.00 0.00 0.00 76 1005.7
20260902152058 62 209 1.0 4.0 0.00 0.00 0.00 75 1005.7
20260902151557 62 221 0.0 4.0 0.00 0.00 0.00 76 1005.7
20260902151059 62 136 0.0 2.0 0.00 0.00 0.00 76 1005.8
20260902150557 62 200 0.0 2.0 0.00 0.00 0.00 76 1005.8
20260902150055 62 125 0.0 1.0 0.00 0.00 0.00 76 1005.9
20260902145555 61 225 0.0 1.0 0.00 0.00 0.00 77 1006.0
20260902145056 61 225 0.0 1.0 0.00 0.00 0.00 76 1006.0
20260902144556 61 212 0.0 1.0 0.00 0.00 0.00 76 1006.0
20260902144056 61 212 0.0 0.0 0.00 0.00 0.00 77 1006.1
20260902143556 61 165 0.0 4.0 0.00 0.00 0.00 77 1006.1
20260902143056 61 165 0.0 4.0 0.00 0.00 0.00 77 1006.2
20260902142556 61 140 0.0 2.0 0.00 0.00 0.00 77 1006.2
20260902142100 61 140 0.0 3.0 0.00 0.00 0.00 77 1006.2
20260902142055 61 148 0.0 3.0 0.00 0.00 0.00 77 1006.2
20260902141055 61 157 0.0 2.0 0.00 0.00 0.00 77 1006.2
20260902140555 60 140 0.0 1.0 0.00 0.00 0.00 77 1006.2
20260902140055 60 138 0.0 1.0 0.00 0.00 0.00 77 1006.2
20260902135552 61 137 0.0 1.0 0.00 0.00 0.00 77 1006.3
20260902135053 60 133 0.0 1.0 0.00 0.00 0.00 77 1006.3
20260902134553 61 143 0.0 2.0 0.00 0.00 0.00 77 1006.5
20260902134100 61 143 0.0 3.0 0.00 0.00 0.00 76 1006.6
20260902134055 61 143 0.0 2.0 0.00 0.00 0.00 77 1006.6
20260902133053 61 145 0.0 3.0 0.00 0.00 0.00 76 1006.7
20260902132552 61 94 0.0 2.0 0.00 0.00 0.00 76 1006.7
20260902132059 61 149 0.0 3.0 0.00 0.00 0.00 76 1006.8
20260902132054 61 159 0.0 3.0 0.00 0.00 0.00 76 1006.8
20260902131052 61 147 1.0 4.0 0.00 0.00 0.00 76 1006.8
20260902130551 61 142 1.0 4.0 0.00 0.00 0.00 75 1007.0
20260902130052 61 123 0.0 2.0 0.00 0.00 0.00 76 1007.2
20260902125550 61 148 0.0 2.0 0.00 0.00 0.00 75 1007.3
20260902125052 61 139 1.0 4.0 0.00 0.00 0.00 75 1007.4
20260902124552 61 142 1.0 5.0 0.00 0.00 0.00 75 1007.4
20260902124052 61 132 1.0 5.0 0.00 0.00 0.00 75 1007.4
20260902123552 61 146 0.0 1.0 0.00 0.00 0.00 75 1007.4
20260902123052 61 128 0.0 1.0 0.00 0.00 0.00 76 1007.5
20260902122556 61 146 0.0 2.0 0.00 0.00 0.00 75 1007.6
20260902122551 61 139 0.0 1.0 0.00 0.00 0.00 75 1007.5
20260902121551 61 146 1.0 3.0 0.00 0.00 0.00 75 1007.7
20260902121050 61 148 1.0 3.0 0.00 0.00 0.00 75 1007.8
20260902120547 61 132 0.0 3.0 0.00 0.00 0.00 76 1007.9
20260902120054 61 138 0.0 3.0 0.00 0.00 0.00 76 1008.0
20260902120049 61 140 0.0 3.0 0.00 0.00 0.00 76 1007.9
20260902115047 61 141 1.0 3.0 0.00 0.00 0.00 76 1008.1
20260902114545 61 143 0.0 2.0 0.00 0.00 0.00 77 1008.2
20260902114046 60 139 0.0 2.0 0.00 0.00 0.00 77 1008.3
20260902113544 60 131 0.0 2.0 0.00 0.00 0.00 77 1008.4
20260902113044 60 157 0.0 2.0 0.00 0.00 0.00 77 1008.5
20260902112541 60 225 0.0 1.0 0.00 0.00 0.00 77 1008.6
20260902112042 60 181 0.0 4.0 0.00 0.00 0.00 77 1008.5
20260902111542 60 156 1.0 4.0 0.00 0.00 0.00 77 1008.6
20260902111042 60 162 1.0 5.0 0.00 0.00 0.00 77 1008.6
20260902110539 60 146 1.0 5.0 0.00 0.00 0.00 77 1008.7
20260902110040 60 127 0.0 4.0 0.00 0.00 0.00 77 1008.7
20260902105539 60 146 0.0 3.0 0.00 0.00 0.00 77 1008.8
20260902105039 60 152 0.0 4.0 0.00 0.00 0.00 78 1008.8
20260902104537 60 140 0.0 4.0 0.00 0.00 0.00 78 1008.9
20260902104038 60 144 0.0 1.0 0.00 0.00 0.00 78 1009.0
20260902103538 60 149 0.0 2.0 0.00 0.00 0.00 78 1009.0
20260902103039 60 237 0.0 4.0 0.00 0.00 0.00 78 1009.1
20260902102537 60 207 0.0 4.0 0.00 0.00 0.00 78 1009.1
20260902102036 60 150 0.0 2.0 0.00 0.00 0.00 79 1009.1
20260902101544 60 212 0.0 3.0 0.00 0.00 0.00 78 1009.2
20260902101538 60 132 0.0 1.0 0.00 0.00 0.00 79 1009.2
20260902101038 60 227 0.0 3.0 0.00 0.00 0.00 78 1009.1
20260902100041 60 281 0.0 2.0 0.00 0.00 0.00 78 1009.2
20260902100036 60 245 0.0 1.0 0.00 0.00 0.00 78 1009.3
20260902095035 60 245 0.0 1.0 0.00 0.00 0.00 77 1009.3
20260902094535 60 122 0.0 1.0 0.00 0.00 0.00 77 1009.2
20260902094036 60 186 0.0 3.0 0.00 0.00 0.00 76 1009.3
20260902093535 60 147 1.0 3.0 0.00 0.00 0.00 76 1009.3
20260902093034 60 151 1.0 4.0 0.00 0.00 0.00 76 1009.4
20260902092540 60 149 1.0 3.0 0.00 0.00 0.00 76 1009.4
20260902092535 60 154 1.0 4.0 0.00 0.00 0.00 76 1009.4
20260902091540 60 153 0.0 3.0 0.00 0.00 0.00 76 1009.6
20260902091536 60 196 1.0 3.0 0.00 0.00 0.00 76 1009.5
20260902091157 60 133 0.0 2.0 0.00 0.00 0.00 76 1009.7
20260902090034 60 171 0.0 5.0 0.00 0.00 0.00 76 1009.7
20260902085536 60 129 1.0 5.0 0.00 0.00 0.00 76 1009.7
20260902085035 60 143 2.0 4.0 0.00 0.00 0.00 77 1009.8
20260902084535 60 193 1.0 4.0 0.00 0.00 0.00 78 1009.8
20260902084040 59 154 0.0 0.0 0.00 0.00 0.00 80 1009.9
20260902084034 59 146 0.0 2.0 0.00 0.00 0.00 80 1009.8
20260902083039 59 146 0.0 0.0 0.00 0.00 0.00 81 1010.0
20260902083034 59 154 0.0 0.0 0.00 0.00 0.00 80 1010.0
20260902082035 58 146 0.0 0.0 0.00 0.00 0.00 81 1010.0
20260902081535 58 146 0.0 0.0 0.00 0.00 0.00 82 1010.1
20260902081036 58 146 0.0 1.0 0.00 0.00 0.00 82 1010.2
20260902080534 58 124 0.0 1.0 0.00 0.00 0.00 82 1010.1
20260902080036 59 208 0.0 0.0 0.00 0.00 0.00 82 1010.2
20260902075534 59 248 0.0 0.0 0.00 0.00 0.00 81 1010.2
20260902075036 59 248 0.0 0.0 0.00 0.00 0.00 81 1010.0
20260902074540 59 150 0.0 0.0 0.00 0.00 0.00 82 1010.1
20260902074534 59 248 0.0 1.0 0.00 0.00 0.00 81 1010.0
20260902074035 59 226 0.0 1.0 0.00 0.00 0.00 82 1010.1
20260902073036 59 150 0.0 0.0 0.00 0.00 0.00 82 1010.1
20260902072536 59 147 0.0 0.0 0.00 0.00 0.00 82 1010.2
20260902072035 59 204 0.0 0.0 0.00 0.00 0.00 82 1010.2
20260902071537 59 209 0.0 0.0 0.00 0.00 0.00 82 1010.3
20260902071035 59 206 0.0 0.0 0.00 0.00 0.00 81 1010.3
20260902070534 60 206 0.0 0.0 0.00 0.00 0.00 80 1010.4
20260902070038 60 206 0.0 1.0 0.00 0.00 0.00 80 1010.4
20260902070032 60 206 0.0 1.0 0.00 0.00 0.00 80 1010.4
20260902065037 61 135 0.0 0.0 0.00 0.00 0.00 79 1010.5
20260902065031 60 243 0.0 1.0 0.00 0.00 0.00 79 1010.5
20260902064650 61 134 0.0 2.0 0.00 0.00 0.00 78 1010.5
20260902063532 61 134 0.0 2.0 0.00 0.00 0.00 77 1010.5
20260902063031 62 161 0.0 2.0 0.00 0.00 0.00 77 1010.5